Lid_Strength_Index
11 10 9 10 10 10 11 11 13 13 11 12 10 10 9 8 7 7 6 5 5 5 4 4 4 3 3 3 2 2 2 2 2 2 2 2 2 2 2 2 2 2 2 1
13 10 11 13 11 10 11 12 12 12 12 9 8 8 8 7 7 7 6 6 5 5 4 5 4 3 3 3 2 2 2 2 2 2 2 2 2 2 2 2 2 2 2 1
14 11 11 16 13 12 12 11 12 15 12 9 9 9 9 8 7 7 6 5 5 5 4 4 5 4 3 3 2 2 2 2 2 2 2 2 2 2 2 3 2 2 3 2
14 13 18 12 9 9 11 11 10 10 10 9 9 7 7 6 7 6 6 5 5 4 4 3 3 3 2 2 2 2 3 2 2 2 2 3 2 3 2 3 2 3 2 2
14 15 14 12 10 11 12 12 9 10 9 8 7 7 7 5 5 5 5 4 4 3 3 3 3 3 3 3 3 3 3 3 2 2 4 3 3 4 4 2 3 2 2 2
13 15 17 13 9 7 8 15 9 8 9 9 8 12 9 6 5 5 4 4 4 3 3 3 3 3 3 3 4 4 4 2 4 4 4 4 3 2 2 2 4 1 2 2
14 14 15 10 8 7 14 14 8 7 7 8 9 8 6 5 5 4 4 4 4 3 4 3 3 3 4 4 4 5 4 5 5 4 4 5 5 3 3 2 4 2 2 3
15 17 19 8 8 12 10 8 7 7 7 7 6 6 5 5 5 5 5 4 3 4 4 3 3 3 4 4 4 4 4 5 5 5 4 4 4 3 4 2 5 3 3 3
13 14 9 7 8 6 6 7 7 7 6 6 6 6 5 5 5 5 5 4 3 3 4 3 3 4 5 3 4 5 6 6 6 5 4 3 3 3 3 3 3 3 3 3
12 10 9 8 6 6 5 6 5 5 5 5 6 6 6 5 5 5 4 4 3 4 4 3 3 4 5 4 3 6 6 7 5 5 3 3 3 3 3 4 3 3 3 3
11 9 8 7 6 6 5 4 5 5 5 5 5 6 5 5 5 4 4 4 4 4 4 4 3 4 4 5 4 4 6 7 6 3 3 5 4 4 3 2 2 3 3 2
12 8 8 8 6 5 5 5 5 5 5 5 5 5 5 5 4 4 4 4 4 4 4 3 3 3 3 4 4 5 3 3 4 3 4 3 4 5 9 10 10 10 9 5
8 6 6 5 5 4 5 4 4 4 5 5 5 4 4 5 5 4 3 3 4 4 4 4 4 4 3 3 4 4 5 5 5 4 4 3 4 5 6 8 11 13 12 11
6 6 7 6 6 4 4 4 4 4 4 4 4 4 4 4 4 4 4 3 3 4 4 4 4 5 4 2 3 3 3 6 5 5 5 5 4 4 4 5 6 7 12 12
6 5 5 5 5 5 4 4 5 5 5 5 4 4 4 5 5 4 3 3 4 4 4 4 4 4 3 3 2 4 4 3 3 4 4 5 3 3 3 4 5 7 9 11
5 5 5 5 5 5 5 5 6 6 5 4 4 4 4 4 4 4 4 4 5 5 4 4 5 4 3 4 4 3 3 5 5 4 4 3 3 3 3 3 4 5 5 6
8 7 7 7 6 6 5 5 5 5 5 4 4 3 3 3 4 3 3 4 4 4 4 5 5 4 4 4 5 5 4 3 4 4 3 3 3 4 4 3 3 4 3 4
6 5 5 5 5 5 5 4 4 4 4 4 3 4 4 4 4 4 4 4 4 5 4 4 4 4 3 3 4 4 4 4 4 4 4 3 3 3 3 3 3 3 3 5
4 4 4 4 4 4 4 4 4 4 4 3 4 5 4 4 4 4 4 5 5 6 5 3 1 2 3 2 2 4 3 4 4 4 4 4 3 3 2 2 3 2 3 3
4 4 4 4 4 4 4 4 3 4 3 4 4 4 5 5 4 4 4 5 5 4 4 3 1 2 3 3 2 4 4 4 4 4 5 5 4 5 5 6 4 4 4 4
4 4 4 4 4 4 4 4 4 4 3 3 4 5 5 5 4 4 5 5 4 3 3 1 2 2 3 4 4 4 4 4 3 4 5 6 5 4 4 4 4 4 4 4
4 5 5 5 5 5 4 4 3 3 3 3 3 4 5 5 5 4 4 4 3 3 2 2 3 2 3 3 3 2 2 3 3 3 4 4 4 4 4 4 4 4 4 4
4 4 4 5 5 5 5 4 4 4 4 3 4 4 5 5 5 5 5 4 4 4 4 3 3 2 3 4 4 4 3 3 3 3 3 3 3 3 4 4 4 4 4 4
5 4 5 4 4 5 5 4 3 3 3 3 4 3 4 5 4 4 4 4 4 4 4 3 3 3 3 3 4 4 4 3 4 4 3 5 4 4 5 5 5 6 6 6
5 4 4 5 5 5 5 4 4 4 4 4 4 3 3 3 4 5 5 4 4 5 4 4 3 3 4 3 3 2 4 3 2 3 4 5 5 5 5 5 5 6 6 5
4 4 4 3 4 3 3 4 5 5 4 4 4 3 2 2 4 4 5 5 5 5 5 5 4 4 5 5 6 5 5 4 5 5 5 5 5 5 5 5 5 5 5 5
4 5 4 5 4 4 3 4 4 5 4 4 4 4 3 4 4 4 4 4 4 4 4 4 4 5 5 5 5 5 5 5 5 4 4 4 5 5 5 5 5 5 5 5